#timestamp,LO_Frequency,Hit,StdDev 
1541750415.7,286047002.3,N
1541750435.5,286047004.3,Y
1541750455.4,286047002.3,P
1541750475.2,286047003.1,P
1541750495.0,286047008.9,P
1541750495.9,286047008.9,Y
1541750515.8,286047002.3,P
1541750535.6,286047000.5,N
1541750555.4,286046999.8,N
1541750575.3,286047000.0,N
1541750595.1,286046996.6,N
1541750615.9,286046996.8,N
1541750635.7,286046995.6,N
1541750655.5,286046991.7,Y
1541750675.4,286046994.3,P
1541750695.2,286046993.8,N
1541750715.0,286046992.7,N
1541750715.9,286046992.7,N
1541750735.8,286046991.0,Y
1541750755.6,286046996.9,P
1541750775.5,286046995.2,P
1541750795.3,286046996.0,P
1541750815.1,286046994.2,Y
1541750835.9,286046997.7,P
1541750855.7,286046995.2,P
1541750875.5,286046995.2,P
1541750895.4,286046994.7,Y
1541750915.2,286046997.9,P
1541750935.1,286046995.1,P
1541750936.0,286046995.1,P
1541750955.8,286046996.2,Y
1541750975.6,286047000.6,P
1541750995.5,286046998.2,N
1541751015.3,286046999.6,N
1541751035.1,286046998.9,N
1541751055.9,286046994.9,Y
1541751075.7,286046997.8,P
1541751095.6,286046995.6,P
1541751115.4,286046993.3,P
1541751135.2,286046996.2,N
1541751155.1,286046995.1,N
1541751156.0,286046995.1,N
1541751175.8,286046995.4,N
1541751195.6,286046993.5,Y
1541751215.5,286046999.0,P
1541751235.3,286047000.4,N
1541751255.2,286047001.1,N
1541751275.9,286046998.4,N
1541751295.7,286046999.5,N
1541751315.6,286047000.4,N
1541751335.4,286047002.4,N
1541751355.2,286047001.5,N
1541751375.1,286047004.9,N
1541751376.0,286047004.9,N
1541751395.8,286047005.3,N
1541751415.7,286047005.5,N
1541751435.5,286047007.4,N
1541751455.3,286047006.3,N
1541751475.2,286047006.4,N
1541751495.0,286047006.9,N
1541751495.9,286047006.9,N
1541751515.7,286047009.0,N
1541751535.6,286047008.3,N
1541751555.4,286047008.2,N
1541751575.3,286047010.2,N
1541751595.1,286047010.4,N
1541751596.0,286047010.4,N
1541751615.8,286047010.8,N
1541751635.7,286047011.2,N
1541751655.5,286047011.0,N
1541751675.3,286047011.7,N
1541751695.2,286047011.7,N
1541751715.0,286047013.7,Y
1541751715.9,286047013.7,P
1541751735.8,286047009.2,N
1541751755.6,286047005.3,N
1541751775.4,286047001.3,N
1541751795.3,286047004.3,N
1541751815.1,286047004.1,N
1541751835.8,286047001.8,N
1541751855.7,286047003.9,N
1541751875.5,286047003.5,N
1541751895.4,286047004.1,N
1541751915.2,286047003.8,N
1541751935.0,286047003.4,N
1541751935.9,286047003.4,N
1541751955.8,286047002.3,N
1541751975.6,286047002.3,N
1541751995.4,286047001.3,N
1541752015.3,286047002.2,N
1541752035.1,286047002.2,N
1541752055.9,286047005.6,N
1541752075.7,286047007.6,N
1541752095.5,286047007.1,N
1541752115.4,286047006.8,N
1541752135.2,286047006.8,N
1541752155.0,286047005.7,N
1541752155.9,286047005.7,N
1541752175.8,286047005.6,N
1541752195.6,286047006.0,N
1541752215.5,286047006.0,N
1541752235.3,286047005.7,N
1541752255.1,286047004.8,N
1541752275.9,286047004.1,N
1541752295.7,286047005.6,N
1541752315.5,286047007.6,Y
1541752335.4,286047000.9,P
1541752355.2,286047000.8,N
1541752375.1,286046998.7,N
1541752376.0,286046998.7,N
1541752395.8,286046998.5,N
1541752415.6,286046999.3,N
1541752435.5,286046998.7,N
1541752455.3,286046998.9,N
1541752475.1,286047000.7,N
1541752495.9,286046999.2,N
1541752515.7,286046999.3,N
1541752535.5,286046996.9,N
1541752555.4,286046998.4,N
1541752575.2,286046998.8,N
1541752595.1,286046999.2,N
1541752596.0,286046999.2,N
1541752615.8,286047000.2,N
1541752635.6,286047002.4,N
1541752655.5,286047000.5,N
1541752675.3,286046999.8,N
1541752695.1,286047000.7,N
1541752715.9,286047000.7,N
1541752735.7,286047000.9,N
1541752755.6,286047000.2,N
1541752775.4,286046999.8,N
1541752795.2,286047001.0,N
1541752815.1,286046998.8,N
1541752816.0,286046998.8,N
1541752835.8,286047000.6,N
1541752855.6,286046996.7,N
1541752875.5,286046997.4,N
1541752895.3,286046997.7,N
1541752915.2,286046995.8,Y
1541752935.9,286046996.1,P
1541752955.7,286046994.8,P
1541752975.6,286046991.8,P
1541752995.4,286046992.9,N
1541753015.2,286046993.0,N
1541753035.1,286046993.9,N
1541753036.0,286046993.9,N
1541753055.8,286046994.7,N
1541753075.7,286046992.2,Y
1541753095.5,286046999.3,P
1541753115.3,286046998.5,N
1541753135.2,286046998.4,N
1541753155.0,286047011.9,Y
1541753155.9,286046999.3,P
1541753175.8,286047004.1,P
1541753195.6,286047003.4,N
1541753215.4,286047007.5,N
1541753235.3,286047005.5,N
1541753255.1,286047002.9,N
1541753275.8,286047002.9,N
1541753295.7,286047003.5,N
1541753315.5,286047004.5,N
1541753335.4,286047005.1,N
1541753355.2,286047005.1,N
1541753375.0,286047005.0,N
1541753375.9,286047005.0,N
1541753395.8,286047007.2,N
1541753415.6,286047006.3,N
1541753435.4,286047006.1,N
1541753455.3,286047006.6,N
1541753475.1,286047009.0,Y
1541753495.9,286047003.2,P
1541753515.7,286047004.2,P
1541753535.5,286047001.8,P
1541753555.4,286047001.8,N
1541753575.2,286047000.0,N
1541753595.0,286047002.8,N
1541753596.0,286047002.8,N
1541753615.8,286046999.7,N
1541753635.6,286047002.6,N
1541753655.5,286047000.1,N
1541753675.3,286047002.2,N
1541753695.1,286047002.2,N
1541753715.9,286047002.0,N
1541753735.7,286047004.4,Y
1541753755.6,286047001.2,P
1541753775.4,286047000.3,N
1541753795.2,286047002.7,P
1541753815.1,286047000.2,N
1541753816.0,286047000.2,N
1541753835.8,286046999.8,N
1541753855.7,286047000.1,N
1541753875.5,286047000.1,N
1541753895.3,286047000.6,N
1541753915.2,286046998.3,N
1541753935.0,286047000.9,N
1541753935.9,286047000.9,N
1541753955.7,286047005.9,Y
1541753975.6,286047003.4,P
1541753995.4,286047003.7,N
